This is the latest recevied weather packets stored in our database for station/object K7KAR-2. If no packets are shown the sender has not sent any weather packets the latest 10 day(s).
| Time | Temp. | Humidity | Pressure | Rain* | Wind** | Luminosity | Snow |
|---|---|---|---|---|---|---|---|
| 1778270520 | 17.78° C | 28% | 1010.3 hPa | 0 mm | - | 352 W/m² | - |
| 1778270216 | 17.78° C | 31% | 1010.9 hPa | 0 mm | - | 292 W/m² | - |
| 1778269913 | 17.78° C | 30% | 1010.6 hPa | 0 mm | - | 184 W/m² | - |
| 1778269609 | 17.78° C | 26% | 1010.7 hPa | 0 mm | - | 141 W/m² | - |
| 1778269306 | 17.78° C | 26% | 1010.6 hPa | 0 mm | - | 204 W/m² | - |
| 1778269003 | 17.78° C | 29% | 1010.8 hPa | 0 mm | - | 212 W/m² | - |
| 1778268700 | 18.89° C | 27% | 1010.9 hPa | 0 mm | - | 673 W/m² | - |
| 1778268397 | 18.89° C | 19% | 1011 hPa | 0 mm | - | 239 W/m² | - |
| 1778268094 | 18.89° C | 17% | 1011.3 hPa | 0 mm | - | 187 W/m² | - |
| 1778267791 | 18.89° C | 18% | 1011.3 hPa | 0 mm | - | 171 W/m² | - |
| 1778267487 | 18.89° C | 18% | 1011.4 hPa | 0 mm | - | 209 W/m² | - |
| 1778267185 | 18.89° C | 17% | 1011.3 hPa | 0 mm | - | 215 W/m² | - |
| 1778266881 | 18.89° C | 18% | 1011.3 hPa | 0 mm | - | 206 W/m² | - |
| 1778266578 | 18.89° C | 17% | 1011.4 hPa | 0 mm | - | 209 W/m² | - |
| 1778266276 | 18.89° C | 17% | 1011.4 hPa | 0 mm | - | 217 W/m² | - |
| 1778265973 | 20° C | 15% | 1011.5 hPa | 0 mm | - | 315 W/m² | - |
| 1778265670 | 19.44° C | 14% | 1011.7 hPa | 0 mm | - | 918 W/m² | - |
| 1778265366 | 21.11° C | 12% | 1011.7 hPa | 0 mm | - | 912 W/m² | - |
| 1778265062 | 20° C | 15% | 1011.7 hPa | 0 mm | - | 892 W/m² | - |
| 1778264759 | 18.89° C | 14% | 1011.9 hPa | 0 mm | - | 924 W/m² | - |
| 1778264455 | 18.89° C | 15% | 1012.2 hPa | 0 mm | - | 331 W/m² | - |
| 1778264155 | 18.89° C | 15% | 1011.9 hPa | 0 mm | - | 278 W/m² | - |
| 1778263854 | 20° C | 16% | 1012.3 hPa | 0 mm | - | 980 W/m² | - |
| 1778263550 | 18.89° C | 19% | 1012.4 hPa | 0 mm | - | 887 W/m² | - |
| 1778263246 | 19.44° C | 17% | 1012.5 hPa | 0 mm | - | 493 W/m² | - |
* Rain latest hour (hover to see other rain measurements)
** Current wind speed in m/s (hover to see current wind gust speed)